Regional Weather Roundup
Issued by NWS Northern Indiana

Home | Current Version | Previous Version | Text Only | Print | Product List | Glossary On
Versions: 1 2 3 4 5 6 7 8 9 10 11 12 13 14 15 16 17 18 19 20 21 22 23 24 25 26 27 28 29 30 31 32 33 34 35 36 37 38 39 40 41 42 43 44 45 46 47 48 49 50
000
ASUS43 KIWX 310510
RWRIWX

KIWX WEATHER ROUNDUP
NATIONAL WEATHER SERVICE NORTHERN INDIANA
100 AM EDT FRI OCT 31 2014

NOTE: "FAIR" INDICATES FEW OR NO CLOUDS BELOW 12,000 FEET WITH NO
SIGNIFICANT WEATHER AND/OR OBSTRUCTIONS TO VISIBILITY.

* THESE STATIONS ARE NOT UNDER NWS QUALITY CONTROL. THEY ALSO MAY NOT
  REPORT WEATHER SUCH AS PRECIPITATION OR FOG.

INZ001>027-310600-
NORTHERN INDIANA

CITY           SKY/WX    TMP DP  RH WIND       PRES   REMARKS
GARY*          MOCLDY    46  37  70 W7        30.05S
VALPARAISO     MOCLDY    42  36  79 W7        30.04S
MICHIGAN CITY* MOCLDY    41  34  75 SW5       30.03F
LAPORTE*       PTCLDY    43  37  77 W3        30.03F
KNOX*          MOCLDY    42  37  82 W5        30.03S
SOUTH BEND     CLOUDY    46  36  68 SW8       30.02F
GOSHEN         CLOUDY    44  38  79 SW5       30.01F
MONTICELLO*    CLOUDY    40  39  95 CALM      30.04S
LOGANSPORT*    CLOUDY    41  36  81 CALM      30.05S
ROCHESTER*     CLOUDY    46  37  71 W3        30.04S
WARSAW*        CLOUDY    43  36  75 W3        30.03S
ANGOLA*        CLOUDY    43  36  75 SW5       30.00F
FORT WAYNE     CLOUDY    43  37  79 SW5       30.04S
HUNTINGTON*    CLOUDY   N/A N/A N/A CALM      30.02F
PERU/GRISSOM   CLOUDY    42  39  91 W3        30.03F
MARION*        MOCLDY    43  36  77 CALM      30.04S

$$
INZ028>050-310600-
CENTRAL INDIANA

CITY           SKY/WX    TMP DP  RH WIND       PRES   REMARKS
LAFAYETTE      MOCLDY    44  39  82 W3        30.05S
KOKOMO*        MOCLDY    45  37  76 CALM      30.04F
MUNCIE*        CLOUDY    46  35  65 S3        30.03F
INDIANAPOLIS   CLOUDY    47  40  76 NW5       30.04F

$$
MIZ043>046-050>051-056>058-064>065-071>073-077>080-310600-
SOUTHWEST LOWER MICHIGAN

CITY           SKY/WX    TMP DP  RH WIND       PRES   REMARKS
BATTLE CREEK   CLOUDY    45  36  70 SW7       29.99F
BENTON HARBOR  CLOUDY    49  36  61 W10       30.00F
COLDWATER*     CLOUDY    45  38  75 SW3       30.00S
HILLSDALE*     CLOUDY    44  38  78 S3        29.99F
HOLLAND        CLOUDY    50  38  63 W7        29.98F
GRAND RAPIDS   CLOUDY    45  39  79 SW6       29.97F
KALAMAZOO      CLOUDY    45  36  70 SW6       29.99F
STURGIS*       CLOUDY    43  37  81 CALM      30.00S
THREE RIVERS*  CLOUDY    45  37  75 CALM      30.01S

$$
OHZ001>008-015>018-024>025-310600-
NORTHWEST OHIO

CITY           SKY/WX    TMP DP  RH WIND       PRES   REMARKS
WAUSEON*       CLOUDY    45  36  70 SW6       30.01F
DEFIANCE       CLOUDY    45  36  70 SW5       30.02F
FINDLAY        CLOUDY    42  37  82 S5        30.02F
TOLEDO EXPRESS CLOUDY    45  34  65 SW3       30.01F
TOLEDO METCALF CLOUDY    45  36  70 SW6       30.03S
LIMA           CLOUDY    44  37  76 S5        30.02F

$$
AND FOR LAKE MICHIGAN COASTAL AND OPEN LAKE BUOY OBSERVATIONS

STATION/POSITION TEMP    WIND        PRES    VSBY  WAVE
                 AIR SEA DIR/SP/G                  HT/PER
                 (F)     (DEG/KT/KT) (MB)    (MI)  (FT/S)
CALUMET HARBOR    47     240/  6/  8 1016.0F
MICHIGAN CITY     49     240/ 16/ 19   N/A
SAINT JOSEPH      52     260/ 13/ 16 1015.9F
SOUTH LAKE BUOY   50 53  280/ 16/ 19 1016.0F         2/ 3

$$
&&



USA.gov is the U.S. government's official web portal to all federal, state and local government web resources and services.